User: anonymous   Login
Location: Dover
(39.1580°N, 75.5250°W)
Time: 09:32:46
(UTC-04:00)
Language:

SeaSat 1 - Orbit

View from above orbital plane
View from above orbital plane
View from above satellite
View from above satellite

Ground track
Ground track

The orbit data is extracted from the following two-line orbital elements,

1 10967U 78064A   14296.48609014  .00000672  00000-0  24049-3 0  4219
2 10967 107.9939 078.7647 0001415 251.7921 149.8054 14.43119028906986
Epoch (UTC): 23 October 2014 11:39:58
Eccentricity: 0.0001415
inclination: 107.9939°
perigee height: 747 km
apogee height: 749 km
right ascension of ascending node: 78.7647°
argument of perigee: 251.7921°
revolutions per day: 14.43119028
mean anomaly at epoch: 149.8054°
orbit number at epoch: 90698

The dashed part of the orbit path shows where the satellite is in the earth's shadow,  

DLR